• In Slovakia
  • List of Countries
  • For 7 days
  • Water Temperature
  • Satellite Maps
  • Weather Map
  • Weather Widgets
  • user-avatar
    Login

    Hourly Weather Gusevo

    Today, 21 July, Saturday

    Time Temperature Precipitation Wind Pressure Humidity
    00:00 +17°C° 0 mm 0 mps 731 mmHg 97%
    01:00 +17°C° 0 mm 0 mps 732 mmHg 97%
    02:00 +19°C° 0 mm 1 mps 731 mmHg 98%
    03:00 +19°C° 0.1 mm 1 mps 732 mmHg 98%
    04:00 +19°C° 0.1 mm 1 mps 732 mmHg 98%
    05:00 +20°C° 0.1 mm 1 mps 732 mmHg 98%
    06:00 +21°C° 0 mm 1 mps 732 mmHg 95%
    07:00 +22°C° 0 mm 1 mps 733 mmHg 92%
    08:00 +23°C° 0 mm 1 mps 733 mmHg 88%
    09:00 +25°C° 0.8 mm 1 mps 733 mmHg 84%
    10:00 +26°C° 0.8 mm 1 mps 733 mmHg 80%
    11:00 +27°C° 0.8 mm 2 mps 733 mmHg 75%
    12:00 +27°C° 1.3 mm 2 mps 733 mmHg 76%
    13:00 +27°C° 1.3 mm 2 mps 733 mmHg 77%
    14:00 +27°C° 1.3 mm 3 mps 733 mmHg 78%
    15:00 +26°C° 0.3 mm 3 mps 733 mmHg 78%
    16:00 +26°C° 0.3 mm 2 mps 733 mmHg 78%
    17:00 +26°C° 0.3 mm 2 mps 733 mmHg 78%
    18:00 +25°C° 0.3 mm 2 mps 733 mmHg 83%
    19:00 +23°C° 0.3 mm 2 mps 733 mmHg 87%
    20:00 +21°C° 0.3 mm 2 mps 733 mmHg 92%
    21:00 +21°C° 0 mm 2 mps 733 mmHg 93%
    22:00 +21°C° 0 mm 1 mps 733 mmHg 95%
    23:00 +21°C° 0 mm 1 mps 733 mmHg 96%

    Tomorrow, 22 July, Sunday

    Time Temperature Precipitation Wind Pressure Humidity
    00:00 +20°C° 0 mm 1 mps 733 mmHg 96%
    01:00 +20°C° 0 mm 1 mps 733 mmHg 96%
    02:00 +20°C° 0 mm 1 mps 733 mmHg 97%
    03:00 +19°C° 0.3 mm 2 mps 734 mmHg 97%
    04:00 +19°C° 0.3 mm 2 mps 734 mmHg 97%
    05:00 +19°C° 0.3 mm 2 mps 734 mmHg 97%
    06:00 +20°C° 0.3 mm 2 mps 734 mmHg 96%
    07:00 +20°C° 0.3 mm 3 mps 734 mmHg 94%
    08:00 +21°C° 0.3 mm 3 mps 734 mmHg 93%
    09:00 +21°C° 0.1 mm 3 mps 734 mmHg 91%
    10:00 +21°C° 0.1 mm 3 mps 734 mmHg 90%
    11:00 +21°C° 0.1 mm 3 mps 734 mmHg 89%
    12:00 +22°C° 0.1 mm 3 mps 735 mmHg 88%
    13:00 +22°C° 0.1 mm 3 mps 735 mmHg 87%
    14:00 +22°C° 0.1 mm 3 mps 735 mmHg 86%
    15:00 +22°C° 0.1 mm 3 mps 735 mmHg 86%
    16:00 +22°C° 0.1 mm 3 mps 735 mmHg 86%
    17:00 +21°C° 0.1 mm 3 mps 735 mmHg 87%
    18:00 +21°C° 0 mm 3 mps 735 mmHg 88%
    19:00 +20°C° 0 mm 3 mps 735 mmHg 90%
    20:00 +20°C° 0 mm 2 mps 735 mmHg 91%
    21:00 +20°C° 0 mm 2 mps 735 mmHg 92%
    22:00 +19°C° 0 mm 2 mps 735 mmHg 93%
    23:00 +19°C° 0 mm 2 mps 735 mmHg 93%

    Day after tomorrow, 23 July, Monday

    Time Temperature Precipitation Wind Pressure Humidity
    00:00 +19°C° 0 mm 2 mps 735 mmHg 94%
    01:00 +19°C° 0 mm 2 mps 735 mmHg 94%
    02:00 +18°C° 0 mm 2 mps 736 mmHg 95%
    03:00 +18°C° 0 mm 2 mps 736 mmHg 95%
    04:00 +17°C° 0 mm 2 mps 736 mmHg 96%
    05:00 +17°C° 0 mm 3 mps 736 mmHg 96%
    06:00 +18°C° 0 mm 3 mps 736 mmHg 92%
    07:00 +19°C° 0 mm 3 mps 736 mmHg 89%
    08:00 +19°C° 0 mm 4 mps 736 mmHg 85%
    09:00 +19°C° 0 mm 4 mps 736 mmHg 85%
    10:00 +20°C° 0 mm 4 mps 736 mmHg 84%
    11:00 +20°C° 0 mm 4 mps 736 mmHg 84%
    12:00 +20°C° 0.1 mm 3 mps 736 mmHg 82%
    13:00 +20°C° 0.1 mm 3 mps 736 mmHg 81%
    14:00 +21°C° 0.1 mm 3 mps 736 mmHg 79%
    15:00 +21°C° 0.1 mm 3 mps 736 mmHg 79%
    16:00 +21°C° 0.1 mm 3 mps 736 mmHg 78%
    17:00 +21°C° 0.1 mm 3 mps 736 mmHg 78%
    18:00 +20°C° 0.1 mm 3 mps 736 mmHg 82%
    19:00 +19°C° 0.1 mm 2 mps 736 mmHg 86%
    20:00 +19°C° 0.1 mm 2 mps 736 mmHg 91%
    21:00 +18°C° 0 mm 2 mps 736 mmHg 93%
    22:00 +17°C° 0 mm 2 mps 736 mmHg 95%
    23:00 +17°C° 0 mm 2 mps 737 mmHg 97%

    24 July, Tuesday

    Time Temperature Precipitation Wind Pressure Humidity
    00:00 +16°C° 0 mm 2 mps 736 mmHg 97%
    01:00 +16°C° 0 mm 2 mps 736 mmHg 98%
    02:00 +16°C° 0 mm 2 mps 736 mmHg 98%
    03:00 +16°C° 0.1 mm 2 mps 736 mmHg 97%
    04:00 +16°C° 0.1 mm 3 mps 736 mmHg 97%
    05:00 +16°C° 0.1 mm 3 mps 736 mmHg 96%
    06:00 +16°C° 0.1 mm 3 mps 736 mmHg 96%
    07:00 +16°C° 0.1 mm 3 mps 736 mmHg 95%
    08:00 +17°C° 0.1 mm 3 mps 736 mmHg 95%
    09:00 +17°C° 0.4 mm 3 mps 737 mmHg 94%
    10:00 +18°C° 0.4 mm 3 mps 737 mmHg 93%
    11:00 +19°C° 0.4 mm 3 mps 737 mmHg 92%
    12:00 +19°C° 0.3 mm 3 mps 737 mmHg 92%
    13:00 +19°C° 0.3 mm 3 mps 737 mmHg 93%
    14:00 +20°C° 0.3 mm 3 mps 737 mmHg 93%
    15:00 +20°C° 0.2 mm 3 mps 737 mmHg 92%
    16:00 +20°C° 0.2 mm 3 mps 737 mmHg 92%
    17:00 +20°C° 0.2 mm 3 mps 737 mmHg 91%
    18:00 +20°C° 0 mm 3 mps 737 mmHg 93%
    19:00 +19°C° 0 mm 2 mps 737 mmHg 95%
    20:00 +19°C° 0 mm 2 mps 737 mmHg 97%
    21:00 +18°C° 0.2 mm 2 mps 737 mmHg 98%
    22:00 +18°C° 0.2 mm 2 mps 737 mmHg 98%
    23:00 +18°C° 0.2 mm 2 mps 737 mmHg 99%

    25 July, Wednesday

    Time Temperature Precipitation Wind Pressure Humidity
    00:00 +18°C° 0.2 mm 2 mps 737 mmHg 99%
    01:00 +18°C° 0.2 mm 2 mps 738 mmHg 99%
    02:00 +18°C° 0.2 mm 2 mps 738 mmHg 99%
    03:00 +19°C° 0.1 mm 2 mps 738 mmHg 98%
    04:00 +19°C° 0.1 mm 2 mps 738 mmHg 98%
    05:00 +19°C° 0.1 mm 3 mps 738 mmHg 98%
    06:00 +20°C° 0.2 mm 3 mps 739 mmHg 97%
    07:00 +20°C° 0.2 mm 3 mps 739 mmHg 95%
    08:00 +20°C° 0.2 mm 3 mps 739 mmHg 94%
    09:00 +21°C° 0.1 mm 3 mps 740 mmHg 88%
    10:00 +22°C° 0.1 mm 4 mps 740 mmHg 82%
    11:00 +23°C° 0.1 mm 4 mps 740 mmHg 76%
    12:00 +23°C° 0 mm 4 mps 740 mmHg 71%
    13:00 +25°C° 0 mm 4 mps 740 mmHg 65%
    14:00 +26°C° 0 mm 4 mps 740 mmHg 60%
    15:00 +26°C° 0.1 mm 4 mps 740 mmHg 64%
    16:00 +26°C° 0.1 mm 3 mps 740 mmHg 67%
    17:00 +25°C° 0.1 mm 3 mps 740 mmHg 71%
    18:00 +24°C° 0 mm 3 mps 740 mmHg 74%
    19:00 +22°C° 0 mm 3 mps 740 mmHg 77%
    20:00 +20°C° 0 mm 3 mps 740 mmHg 81%
    21:00 +20°C° 0 mm 3 mps 741 mmHg 80%
    22:00 +19°C° 0 mm 3 mps 741 mmHg 80%
    23:00 +19°C° 0 mm 3 mps 741 mmHg 80%

    26 July, Thursday

    Time Temperature Precipitation Wind Pressure Humidity
    00:00 +18°C° 0 mm 3 mps 741 mmHg 81%
    01:00 +18°C° 0 mm 3 mps 741 mmHg 82%
    02:00 +17°C° 0 mm 3 mps 741 mmHg 84%
    03:00 +17°C° 0 mm 3 mps 741 mmHg 83%
    04:00 +17°C° 0 mm 3 mps 742 mmHg 82%
    05:00 +17°C° 0 mm 3 mps 742 mmHg 82%
    06:00 +19°C° 0 mm 3 mps 742 mmHg 77%
    07:00 +20°C° 0 mm 4 mps 742 mmHg 73%
    08:00 +22°C° 0 mm 4 mps 743 mmHg 69%
    09:00 +23°C° 0 mm 4 mps 743 mmHg 65%
    10:00 +26°C° 0 mm 5 mps 743 mmHg 61%
    11:00 +27°C° 0 mm 5 mps 743 mmHg 57%
    12:00 +28°C° 0 mm 5 mps 743 mmHg 55%
    13:00 +28°C° 0 mm 5 mps 743 mmHg 53%
    14:00 +28°C° 0 mm 5 mps 743 mmHg 51%
    15:00 +28°C° 0 mm 4 mps 743 mmHg 53%
    16:00 +28°C° 0 mm 4 mps 743 mmHg 55%
    17:00 +28°C° 0 mm 3 mps 743 mmHg 57%
    18:00 +26°C° 0 mm 3 mps 743 mmHg 65%
    19:00 +24°C° 0 mm 3 mps 743 mmHg 73%
    20:00 +21°C° 0 mm 2 mps 743 mmHg 81%
    21:00 +21°C° 0 mm 2 mps 743 mmHg 84%
    22:00 +20°C° 0 mm 2 mps 744 mmHg 87%
    23:00 +19°C° 0 mm 2 mps 744 mmHg 90%
    Show more